Flag for U.S.A. Weather past 2 weeks in Santa Cruz, California, U.S.A.

40 °F


Feels Like: 38 °F
Forecast: 42 / 55 °F
Wind: 3 mph from North

Location: Watsonville Municipal Airport

Current Time: Nov 25, 2015 at 6:44:35 AM

Latest Report: Nov 25, 2015 at 5:53 AM

Visibility: 10 mi

Pressure: 29.92 "Hg

Humidity: 100%

Dew point: 40 °F

Location of Santa CruzLocation

Historic Weather in Santa Cruz — Graph


Santa Cruz temperature yesterday

Maximum temperature yesterday: 57 °F (at 1:53 PM)
Minimum temperature yesterday: 41 °F (at 8:53 PM)
Average temperature yesterday: 49 °F

Past Weeks' High & Low Weather Summary

High77 °F (Nov 21, 1:53 PM)100% (Nov 15, 5:53 AM)30.42 "Hg (Nov 15, 5:53 AM)
Low40 °F (Nov 11, 6:53 AM)16% (Nov 16, 3:53 PM)29.83 "Hg (Nov 15, 3:53 AM)
Average54 °F71%30.09 "Hg
* Reported Nov 10 4:53 AM — Nov 25 4:53 AM, Santa Cruz, Weather by CustomWeather, © 2015

Note: Actual official high and low records may vary slightly from our data, if they occured in-between our weather recording intervals... More about our weather records


Santa Cruz weather history for previous 24 hours

Time TempWeatherWind HumidityBarometerVisibility
4:53 AM
Wed, Nov 25
42 °FPassing clouds.No wind100%29.91 "Hg10 mi
3:53 AM42 °FMostly cloudy.3 mph100%29.91 "Hg10 mi
2:53 AM43 °FPassing clouds.No wind100%29.90 "Hg10 mi
1:53 AM43 °FRain. Fog.3 mph100%29.91 "Hg5 mi
12:53 AM42 °FLight rain. Mostly cloudy.No wind92%29.90 "Hg10 mi
11:53 PM
Tue, Nov 24
41 °FPassing clouds.3 mph96%29.93 "Hg10 mi
10:53 PM43 °FLight rain. Fog.No wind93%29.94 "Hg6 mi
9:53 PM42 °FPassing clouds.5 mph89%29.94 "Hg10 mi
8:53 PM41 °FClear.3 mph93%29.94 "Hg10 mi
7:53 PM43 °FClear.5 mph89%29.95 "Hg10 mi
6:53 PM46 °FClear.6 mph83%29.95 "Hg10 mi
5:53 PM50 °FClear.No wind66%29.95 "Hg9 mi
4:53 PM52 °FPassing clouds.3 mph61%29.94 "Hg10 mi
3:53 PM54 °FSunny.9 mph55%29.93 "Hg10 mi
2:53 PM56 °FPassing clouds.12 mph72%29.92 "Hg10 mi
1:53 PM57 °FPassing clouds.13 mphN/A29.91 "Hg10 mi
12:53 PM55 °FLight rain. More clouds than sun.12 mphN/A29.90 "Hg10 mi
11:57 AM54 °FLight rain. Mostly cloudy.10 mphN/A29.90 "Hg3 mi
11:01 AM52 °FRain. Fog.No wind100%29.92 "Hg2 mi
10:03 AM51 °FFog.No wind92%29.95 "Hg5 mi
8:53 AM51 °FFog.3 mph92%29.96 "Hg3 mi
7:53 AM50 °FLight rain. Fog.No wind96%29.96 "Hg1 mi
6:53 AM50 °FLight rain. Fog.3 mph89%29.95 "Hg4 mi
Weather by CustomWeather, © 2015

See weather overviewHow to use our weather pages